#timestamp,LO_Frequency,Hit,StdDev 
1679263215.2,286047001.2,N
1679263235.0,286047001.0,N
1679263235.9,286047001.0,N
1679263255.7,286047002.2,N
1679263275.6,286047000.3,N
1679263295.4,286047000.4,N
1679263315.3,286047000.4,N
1679263335.1,286047000.9,N
1679263336.0,286047000.9,N
1679263355.8,286047001.0,N
1679263375.7,286047000.9,N
1679263395.5,286047000.1,N
1679263415.3,286047002.4,N
1679263435.2,286047002.4,N
1679263455.0,286047001.9,N
1679263455.9,286047001.9,N
1679263475.8,286047003.4,N
1679263495.6,286047006.0,Y
1679263515.4,286047001.7,P
1679263535.3,286047002.1,P
1679263555.1,286047002.9,P
1679263575.9,286047004.8,Y
1679263595.7,286047001.8,P
1679263615.5,286047001.7,P
1679263635.4,286047001.9,P
1679263655.2,286047002.8,Y
1679263675.0,286047000.3,P
1679263676.0,286047000.3,N
1679263695.8,286047000.9,N
1679263715.6,286046999.8,N
1679263735.5,286047000.1,N
1679263755.3,286047002.8,Y
1679263775.1,286046999.7,P
1679263795.9,286047000.2,N
1679263815.7,286047000.9,N
1679263835.6,286046998.1,Y
1679263855.4,286046999.1,P
1679263875.2,286046996.6,P
1679263895.1,286046998.6,N
1679263896.0,286046998.6,N
1679263915.8,286046997.7,N
1679263935.6,286046997.3,N
1679263955.5,286046997.4,N
1679263975.3,286046996.3,Y
1679263995.2,286046997.9,P
1679264015.9,286046997.9,P
1679264035.7,286046997.7,P
1679264055.6,286046995.4,Y
1679264075.4,286046996.9,P
1679264095.2,286046998.8,N
1679264115.1,286046998.7,N
1679264116.0,286046998.7,N
1679264135.8,286046998.9,N
1679264155.7,286046997.0,Y
1679264175.5,286047002.8,P
1679264195.3,286047000.1,N
1679264215.2,286046999.7,N
1679264235.0,286047000.6,N
1679264235.9,286047000.6,N
1679264255.8,286047002.5,N
1679264275.6,286047002.1,N
1679264295.4,286047002.0,N
1679264315.3,286047000.4,N
1679264335.1,286047000.3,N
1679264355.8,286046999.9,N
1679264375.7,286046998.5,N
1679264395.5,286046999.6,N
1679264415.4,286046998.4,N
1679264435.2,286046999.5,N
1679264455.0,286046999.2,N
1679264455.9,286046999.2,N
1679264475.8,286046998.3,N
1679264495.6,286046999.5,N
1679264515.4,286046998.5,N
1679264535.3,286046998.8,N
1679264555.1,286046999.6,N
1679264575.9,286046998.9,N
1679264595.7,286046998.8,N
1679264615.5,286046998.5,N
1679264635.4,286047000.5,N
1679264655.2,286046998.5,N
1679264675.1,286047000.6,N
1679264676.0,286047000.6,N
1679264695.8,286046999.6,N
1679264715.6,286046999.4,N
1679264735.5,286046999.1,N
1679264755.3,286046998.1,N
1679264775.1,286046999.6,N
1679264795.9,286046997.5,N
1679264815.7,286046997.2,N
1679264835.6,286046996.5,Y
1679264855.4,286046998.1,P
1679264875.2,286046996.9,P
1679264895.1,286046999.4,N
1679264896.0,286046999.4,N
1679264915.8,286046997.0,Y
1679264935.7,286046998.6,P
1679264955.5,286046998.1,P
1679264975.3,286046998.6,P
1679264995.2,286046999.0,Y
1679265015.0,286047000.4,P
1679265015.9,286047000.4,N
1679265035.7,286046999.8,N
1679265055.6,286047000.6,N
1679265075.4,286047000.0,N
1679265095.3,286046998.1,N
1679265115.1,286046999.9,N
1679265135.8,286047002.5,N
1679265155.7,286047002.0,N
1679265175.5,286047001.6,N
1679265195.4,286047001.5,N
1679265215.2,286047002.0,N
1679265235.0,286047001.8,N
1679265235.9,286047001.8,N
1679265255.8,286047000.0,N
1679265275.6,286047001.8,N
1679265295.4,286047002.2,N
1679265315.3,286047000.2,N
1679265335.1,286047001.9,N
1679265355.9,286047002.1,N
1679265375.7,286047001.0,N
1679265395.5,286046999.5,N
1679265415.4,286046998.7,N
1679265435.2,286047001.0,N
1679265455.0,286046998.5,N
1679265456.0,286046998.5,N
1679265475.8,286046998.7,N
1679265495.6,286046998.1,N
1679265515.5,286046998.7,N
1679265535.3,286046997.2,N
1679265555.1,286046998.3,N
1679265575.9,286047000.9,N
1679265595.7,286046998.3,N
1679265615.6,286046998.1,N
1679265635.4,286046998.8,N
1679265655.2,286046998.9,N
1679265675.1,286046999.3,N
1679265676.0,286046999.3,N
1679265695.8,286046999.2,N
1679265715.7,286047001.1,N
1679265735.5,286047001.2,N
1679265755.3,286046998.1,N
1679265775.2,286046999.2,N
1679265795.0,286047001.2,N
1679265795.9,286047001.2,N
1679265815.8,286047000.8,N
1679265835.6,286047001.1,N
1679265855.4,286046999.3,N
1679265875.3,286046998.1,N
1679265895.1,286046998.7,N
1679265915.8,286046998.2,N
1679265935.7,286047000.8,N
1679265955.5,286047002.4,N
1679265975.4,286047001.2,N
1679265995.2,286046999.9,N
1679266015.0,286046999.9,N
1679266015.9,286046999.9,N
1679266035.8,286047000.1,N
1679266055.6,286047000.3,N
1679266075.5,286047000.5,N
1679266125.3,286047000.3,E
1679266135.2,286047000.4,N
1679266155.1,286047000.9,P
1679266156.0,286047000.9,P
1679266175.8,286047000.6,N
1679266195.7,286046999.4,N
1679266215.5,286046999.2,N
1679266235.3,286047001.2,N
1679266255.2,286047000.8,N
1679266275.0,286046998.1,N
1679266275.9,286046998.1,N
1679266295.7,286046999.4,N
1679266315.6,286047000.3,N
1679266335.4,286047001.1,N
1679266355.3,286047000.3,N
1679266375.1,286047000.3,N
1679266376.0,286047000.3,N
1679266395.8,286046999.0,N
1679266415.7,286046998.6,N
1679266435.5,286047000.4,N
1679266455.4,286047004.4,Y
1679266475.2,286047001.8,P
1679266495.0,286047001.7,N
1679266495.9,286047001.7,N
1679266515.8,286047001.5,N
1679266535.6,286047004.4,Y
1679266555.5,286047004.3,P
1679266575.3,286047002.2,N
1679266595.1,286046998.5,N
1679266615.9,286046999.0,N
1679266635.7,286046996.5,N
1679266655.5,286046999.1,N
1679266675.4,286046999.4,N
1679266695.2,286046997.0,N
1679266715.1,286047000.8,N
1679266716.0,286047000.8,N
1679266735.8,286047001.0,N
1679266755.6,286047001.1,N
1679266775.5,286047000.5,N
1679266795.3,286047000.9,N
